Regional Weather Roundup
Issued by NWS

Home | Current Version | Previous Version | Graphics & Text | Print | Product List | Glossary On
Versions: 1 2 3 4 5 6 7 8 9 10 11 12 13 14 15 16 17 18 19 20 21 22 23 24 25 26 27
000
ASUS45 KSLC 270610
RWRUT

UTAH REGIONAL WEATHER ROUNDUP
NATIONAL WEATHER SERVICE SALT LAKE CITY UT
1200 AM MDT SAT AUG 27 2016

UTZ001>011-023>025-270700-

NORTHERN UTAH

CITY           SKY/WX    TMP DP  RH WIND       PRES   REMARKS
BRIGHAM CITY     N/A     63  33  32 W3        30.03R
HILL AFB       CLEAR     65  27  24 E13G21    30.05S
LOGAN          CLEAR     63  31  30 S9        30.03S
OGDEN          CLEAR     64  29  26 S10       30.02S
PROVO AIRPORT  PTCLDY    64  41  42 E7        30.07S
SALT LAKE CITY CLEAR     68  28  22 SE7       30.02R
VERNAL         CLOUDY    55  52  89 NW8       30.16S
WENDOVER       CLEAR     73  28  19 N15       30.02S
HEBER CITY     PTCLDY    48  34  57 E5        30.12S
WEST JORDAN    CLEAR     67  39  36 S7        30.06R

$$

UTZ012>022-026-027-270700-

SOUTHERN/CENTRAL UTAH

CITY           SKY/WX    TMP DP  RH WIND       PRES   REMARKS
BLANDING       CLOUDY    57  50  77 N7        30.29F
BRYCE CANYON   CLOUDY    48  43  82 S6        30.33S
CEDAR CITY     LGT RAIN  57  48  72 E15       30.21F
MILFORD        CLOUDY    64  46  52 SW18      30.13R
MOAB/CYNLANDS  MOCLDY    68  42  38 SE6       30.10R
PRICE          CLOUDY    57  45  64 NE8       30.18R
ST GEORGE      PTCLDY    75  48  38 E13       30.01S

$$

REGIONAL REPORTS     COLORADO/ARIZONA

CITY           SKY/WX    TMP DP  RH WIND       PRES   REMARKS
CRAIG, CO      CLOUDY    54  43  66 SW7       30.22F
GRAND JUNCTION PTCLDY    59  50  72 W6        30.16F
RIFLE          CLOUDY    54  53  97 E9        30.28F
MONTROSE       CLOUDY    61  45  55 W8        30.23S
CORTEZ         CLOUDY    57  51  80 NE6       30.20S
PAGE, AZ       CLOUDY    67  52  58 CALM      30.14F
GRAND CANYON   MOCLDY    56  49  77 CALM      30.24F
KINGMAN        MOCLDY    71  54  54 SE8       30.02S
FLAGSTAFF      LGT RAIN  53  48  83 N8        30.29S

$$

REGIONAL REPORTS    NEVADA/IDAHO/WYOMING

CITY           SKY/WX    TMP DP  RH WIND       PRES   REMARKS
LAS VEGAS, NV  CLOUDY    85  47  26 S9G17     29.88R
ELY            MOCLDY    61  30  31 S8        30.15R
ELKO           CLEAR     52  25  35 CALM      30.05S
POCATELLO, ID  CLEAR     59  30  33 S7        30.01F
BURLEY         CLEAR     54  39  57 SW9       29.99S
EVANSTON, WY   CLOUDY    54  20  26 VRB3      30.20R
ROCK SPRINGS   CLOUDY    54  35  48 S3        30.16S

$$




USA.gov is the U.S. government's official web portal to all federal, state and local government web resources and services.